owner,sensor,date,latitude,longitude,vertical_datum,wind_speed,wind_to_direction,wind_speed_of_gust,qcFlag 
TCOON,ioos:station:TCOON:005:1,2013-08-01T00:00:00Z,27.6346,-97.2370,0.0,7.3,126.0,8.9,'11111222,11111222,11111222' 
TCOON,ioos:station:TCOON:005:1,2013-08-01T00:06:00Z,27.6346,-97.2370,0.0,5.8,121.0,8.6,'11111222,11111222,11111222' 
TCOON,ioos:station:TCOON:005:1,2013-08-01T00:12:00Z,27.6346,-97.2370,0.0,6.6,122.0,8.2,'11111222,11111222,11111222' 
TCOON,ioos:station:TCOON:005:1,2013-08-01T00:18:00Z,27.6346,-97.2370,0.0,5.4,126.0,7.5,'11111222,11111222,11111222' 
TCOON,ioos:station:TCOON:005:1,2013-08-01T00:24:00Z,27.6346,-97.2370,0.0,5.5,118.0,7.7,'11111222,11111222,11111222' 
TCOON,ioos:station:TCOON:005:1,2013-08-01T00:30:00Z,27.6346,-97.2370,0.0,6.1,116.0,6.9,'11111222,11111222,11111222' 
TCOON,ioos:station:TCOON:005:1,2013-08-01T00:36:00Z,27.6346,-97.2370,0.0,5.4,115.0,8.1,'11111222,11111222,11111222' 
TCOON,ioos:station:TCOON:005:1,2013-08-01T00:42:00Z,27.6346,-97.2370,0.0,6.0,121.0,7.1,'11111222,11111222,11111222' 
TCOON,ioos:station:TCOON:005:1,2013-08-01T00:48:00Z,27.6346,-97.2370,0.0,5.7,118.0,7.7,'11111222,11111222,11111222' 
TCOON,ioos:station:TCOON:005:1,2013-08-01T00:54:00Z,27.6346,-97.2370,0.0,5.8,121.0,6.9,'11111222,11111222,11111222' 
TCOON,ioos:station:TCOON:005:1,2013-08-01T01:00:00Z,27.6346,-97.2370,0.0,5.5,121.0,6.9,'11111222,11111222,11111222' 
TCOON,ioos:station:TCOON:005:1,2013-08-01T01:06:00Z,27.6346,-97.2370,0.0,5.4,117.0,7.1,'11111222,11111222,11111222' 
TCOON,ioos:station:TCOON:005:1,2013-08-01T01:12:00Z,27.6346,-97.2370,0.0,4.7,126.0,7.0,'11111222,11111222,11111222' 
TCOON,ioos:station:TCOON:005:1,2013-08-01T01:18:00Z,27.6346,-97.2370,0.0,4.6,126.0,6.5,'11111222,11111222,11111222' 
TCOON,ioos:station:TCOON:005:1,2013-08-01T01:24:00Z,27.6346,-97.2370,0.0,4.5,128.0,7.0,'11111222,11111222,11111222' 
TCOON,ioos:station:TCOON:005:1,2013-08-01T01:30:00Z,27.6346,-97.2370,0.0,5.1,123.0,7.2,'11111222,11111222,11111222' 
TCOON,ioos:station:TCOON:005:1,2013-08-01T01:36:00Z,27.6346,-97.2370,0.0,4.9,122.0,6.3,'11111222,11111222,11111222' 
TCOON,ioos:station:TCOON:005:1,2013-08-01T01:42:00Z,27.6346,-97.2370,0.0,4.5,130.0,6.1,'11111222,11111222,11111222' 
TCOON,ioos:station:TCOON:005:1,2013-08-01T01:48:00Z,27.6346,-97.2370,0.0,3.8,137.0,5.7,'11111222,11111222,11111222' 
TCOON,ioos:station:TCOON:005:1,2013-08-01T01:54:00Z,27.6346,-97.2370,0.0,4.3,129.0,6.0,'11111222,11111222,11111222' 
TCOON,ioos:station:TCOON:005:1,2013-08-01T02:00:00Z,27.6346,-97.2370,0.0,4.5,128.0,6.1,'11111222,11111222,11111222' 
TCOON,ioos:station:TCOON:005:1,2013-08-01T02:06:00Z,27.6346,-97.2370,0.0,3.9,139.0,5.4,'11111222,11111222,11111222' 
TCOON,ioos:station:TCOON:005:1,2013-08-01T02:12:00Z,27.6346,-97.2370,0.0,4.7,137.0,6.1,'11111222,11111222,11111222' 
TCOON,ioos:station:TCOON:005:1,2013-08-01T02:18:00Z,27.6346,-97.2370,0.0,4.2,139.0,5.8,'11111222,11111222,11111222' 
TCOON,ioos:station:TCOON:005:1,2013-08-01T02:24:00Z,27.6346,-97.2370,0.0,4.2,132.0,5.3,'11111222,11111222,11111222' 
TCOON,ioos:station:TCOON:005:1,2013-08-01T02:30:00Z,27.6346,-97.2370,0.0,4.4,138.0,5.8,'11111222,11111222,11111222' 
TCOON,ioos:station:TCOON:005:1,2013-08-01T02:36:00Z,27.6346,-97.2370,0.0,4.2,139.0,5.3,'11111222,11111222,11111222' 
TCOON,ioos:station:TCOON:005:1,2013-08-01T02:42:00Z,27.6346,-97.2370,0.0,3.9,141.0,5.8,'11111222,11111222,11111222' 
TCOON,ioos:station:TCOON:005:1,2013-08-01T02:48:00Z,27.6346,-97.2370,0.0,3.9,137.0,5.5,'11111222,11111222,11111222' 
TCOON,ioos:station:TCOON:005:1,2013-08-01T02:54:00Z,27.6346,-97.2370,0.0,3.9,141.0,5.3,'11111222,11111222,11111222' 
TCOON,ioos:station:TCOON:005:1,2013-08-01T03:00:00Z,27.6346,-97.2370,0.0,3.5,138.0,5.1,'11111222,11111222,11111222' 
TCOON,ioos:station:TCOON:005:1,2013-08-01T03:06:00Z,27.6346,-97.2370,0.0,3.3,140.0,4.9,'11111222,11111222,11111222' 
TCOON,ioos:station:TCOON:005:1,2013-08-01T03:12:00Z,27.6346,-97.2370,0.0,3.1,149.0,4.4,'11111222,11111222,11111222' 
TCOON,ioos:station:TCOON:005:1,2013-08-01T03:18:00Z,27.6346,-97.2370,0.0,3.6,148.0,5.4,'11111222,11111222,11111222' 
TCOON,ioos:station:TCOON:005:1,2013-08-01T03:24:00Z,27.6346,-97.2370,0.0,3.7,150.0,4.8,'11111222,11111222,11111222' 
TCOON,ioos:station:TCOON:005:1,2013-08-01T03:30:00Z,27.6346,-97.2370,0.0,3.5,151.0,4.7,'11111222,11111222,11111222' 
TCOON,ioos:station:TCOON:005:1,2013-08-01T03:36:00Z,27.6346,-97.2370,0.0,3.0,147.0,4.8,'11111222,11111222,11111222' 
TCOON,ioos:station:TCOON:005:1,2013-08-01T03:42:00Z,27.6346,-97.2370,0.0,3.2,149.0,4.8,'11111222,11111222,11111222' 
TCOON,ioos:station:TCOON:005:1,2013-08-01T03:48:00Z,27.6346,-97.2370,0.0,2.7,147.0,3.8,'11111222,11111222,11111222' 
TCOON,ioos:station:TCOON:005:1,2013-08-01T03:54:00Z,27.6346,-97.2370,0.0,2.7,149.0,3.6,'11111222,11111222,11111222' 
TCOON,ioos:station:TCOON:005:1,2013-08-01T04:00:00Z,27.6346,-97.2370,0.0,3.2,148.0,4.3,'11111222,11111222,11111222' 
TCOON,ioos:station:TCOON:005:1,2013-08-01T04:06:00Z,27.6346,-97.2370,0.0,2.6,148.0,4.0,'11111222,11111222,11111222' 
TCOON,ioos:station:TCOON:005:1,2013-08-01T04:12:00Z,27.6346,-97.2370,0.0,3.2,146.0,4.6,'11111222,11111222,11111222' 
TCOON,ioos:station:TCOON:005:1,2013-08-01T04:18:00Z,27.6346,-97.2370,0.0,3.1,149.0,4.1,'11111222,11111222,11111222' 
TCOON,ioos:station:TCOON:005:1,2013-08-01T04:24:00Z,27.6346,-97.2370,0.0,3.0,154.0,4.1,'11111222,11111222,11111222' 
TCOON,ioos:station:TCOON:005:1,2013-08-01T04:30:00Z,27.6346,-97.2370,0.0,3.4,151.0,4.2,'11111222,11111222,11111222' 
TCOON,ioos:station:TCOON:005:1,2013-08-01T04:36:00Z,27.6346,-97.2370,0.0,3.2,149.0,4.3,'11111222,11111222,11111222' 
TCOON,ioos:station:TCOON:005:1,2013-08-01T04:42:00Z,27.6346,-97.2370,0.0,3.2,144.0,4.0,'11111222,11111222,11111222' 
TCOON,ioos:station:TCOON:005:1,2013-08-01T04:48:00Z,27.6346,-97.2370,0.0,3.1,148.0,4.0,'11111222,11111222,11111222' 
TCOON,ioos:station:TCOON:005:1,2013-08-01T04:54:00Z,27.6346,-97.2370,0.0,2.8,140.0,3.7,'11111222,11111222,11111222' 
TCOON,ioos:station:TCOON:005:1,2013-08-01T05:00:00Z,27.6346,-97.2370,0.0,2.5,149.0,3.8,'11111222,11111222,11111222' 
TCOON,ioos:station:TCOON:005:1,2013-08-01T05:06:00Z,27.6346,-97.2370,0.0,2.8,147.0,4.0,'11111222,11111222,11111222' 
TCOON,ioos:station:TCOON:005:1,2013-08-01T05:12:00Z,27.6346,-97.2370,0.0,3.1,145.0,4.0,'11111222,11111222,11111222' 
TCOON,ioos:station:TCOON:005:1,2013-08-01T05:18:00Z,27.6346,-97.2370,0.0,2.9,145.0,4.8,'11111222,11111222,11111222' 
TCOON,ioos:station:TCOON:005:1,2013-08-01T05:24:00Z,27.6346,-97.2370,0.0,2.9,147.0,4.8,'11111222,11111222,11111222' 
TCOON,ioos:station:TCOON:005:1,2013-08-01T05:30:00Z,27.6346,-97.2370,0.0,2.9,146.0,4.1,'11111222,11111222,11111222' 
TCOON,ioos:station:TCOON:005:1,2013-08-01T05:36:00Z,27.6346,-97.2370,0.0,2.8,147.0,4.1,'11111222,11111222,11111222' 
TCOON,ioos:station:TCOON:005:1,2013-08-01T05:42:00Z,27.6346,-97.2370,0.0,3.2,147.0,4.0,'11111222,11111222,11111222' 
TCOON,ioos:station:TCOON:005:1,2013-08-01T05:48:00Z,27.6346,-97.2370,0.0,3.3,150.0,4.2,'11111222,11111222,11111222' 
TCOON,ioos:station:TCOON:005:1,2013-08-01T05:54:00Z,27.6346,-97.2370,0.0,3.2,150.0,4.4,'11111222,11111222,11111222' 
TCOON,ioos:station:TCOON:005:1,2013-08-01T06:00:00Z,27.6346,-97.2370,0.0,2.8,150.0,4.1,'11111222,11111222,11111222' 
TCOON,ioos:station:TCOON:005:1,2013-08-01T06:06:00Z,27.6346,-97.2370,0.0,2.8,150.0,4.4,'11111222,11111222,11111222' 
TCOON,ioos:station:TCOON:005:1,2013-08-01T06:12:00Z,27.6346,-97.2370,0.0,3.0,151.0,3.8,'11111222,11111222,11111222' 
TCOON,ioos:station:TCOON:005:1,2013-08-01T06:18:00Z,27.6346,-97.2370,0.0,3.2,153.0,4.1,'11111222,11111222,11111222' 
TCOON,ioos:station:TCOON:005:1,2013-08-01T06:24:00Z,27.6346,-97.2370,0.0,2.7,152.0,4.1,'11111222,11111222,11111222' 
TCOON,ioos:station:TCOON:005:1,2013-08-01T06:30:00Z,27.6346,-97.2370,0.0,2.8,152.0,4.2,'11111222,11111222,11111222' 
TCOON,ioos:station:TCOON:005:1,2013-08-01T06:36:00Z,27.6346,-97.2370,0.0,3.4,153.0,4.4,'11111222,11111222,11111222' 
TCOON,ioos:station:TCOON:005:1,2013-08-01T06:42:00Z,27.6346,-97.2370,0.0,3.4,158.0,4.3,'11111222,11111222,11111222' 
TCOON,ioos:station:TCOON:005:1,2013-08-01T06:48:00Z,27.6346,-97.2370,0.0,2.8,158.0,4.2,'11111222,11111222,11111222' 
TCOON,ioos:station:TCOON:005:1,2013-08-01T06:54:00Z,27.6346,-97.2370,0.0,3.4,155.0,4.2,'11111222,11111222,11111222' 
TCOON,ioos:station:TCOON:005:1,2013-08-01T07:00:00Z,27.6346,-97.2370,0.0,3.2,155.0,4.9,'11111222,11111222,11111222' 
TCOON,ioos:station:TCOON:005:1,2013-08-01T07:06:00Z,27.6346,-97.2370,0.0,3.6,160.0,4.3,'11111222,11111222,11111222' 
TCOON,ioos:station:TCOON:005:1,2013-08-01T07:12:00Z,27.6346,-97.2370,0.0,3.3,158.0,4.9,'11111222,11111222,11111222' 
TCOON,ioos:station:TCOON:005:1,2013-08-01T07:18:00Z,27.6346,-97.2370,0.0,3.1,161.0,4.5,'11111222,11111222,11111222' 
TCOON,ioos:station:TCOON:005:1,2013-08-01T07:24:00Z,27.6346,-97.2370,0.0,3.0,160.0,4.5,'11111222,11111222,11111222' 
TCOON,ioos:station:TCOON:005:1,2013-08-01T07:30:00Z,27.6346,-97.2370,0.0,3.2,161.0,4.4,'11111222,11111222,11111222' 
TCOON,ioos:station:TCOON:005:1,2013-08-01T07:36:00Z,27.6346,-97.2370,0.0,3.4,158.0,4.5,'11111222,11111222,11111222' 
TCOON,ioos:station:TCOON:005:1,2013-08-01T07:42:00Z,27.6346,-97.2370,0.0,3.3,160.0,4.1,'11111222,11111222,11111222' 
TCOON,ioos:station:TCOON:005:1,2013-08-01T07:48:00Z,27.6346,-97.2370,0.0,3.3,164.0,4.5,'11111222,11111222,11111222' 
TCOON,ioos:station:TCOON:005:1,2013-08-01T07:54:00Z,27.6346,-97.2370,0.0,3.0,165.0,3.9,'11111222,11111222,11111222' 
TCOON,ioos:station:TCOON:005:1,2013-08-01T08:00:00Z,27.6346,-97.2370,0.0,3.0,162.0,4.4,'11111222,11111222,11111222' 
TCOON,ioos:station:TCOON:005:1,2013-08-01T08:06:00Z,27.6346,-97.2370,0.0,3.3,159.0,4.4,'11111222,11111222,11111222' 
TCOON,ioos:station:TCOON:005:1,2013-08-01T08:12:00Z,27.6346,-97.2370,0.0,3.6,162.0,4.9,'11111222,11111222,11111222' 
TCOON,ioos:station:TCOON:005:1,2013-08-01T08:18:00Z,27.6346,-97.2370,0.0,3.3,162.0,4.5,'11111222,11111222,11111222' 
TCOON,ioos:station:TCOON:005:1,2013-08-01T08:24:00Z,27.6346,-97.2370,0.0,3.1,162.0,4.5,'11111222,11111222,11111222' 
TCOON,ioos:station:TCOON:005:1,2013-08-01T08:30:00Z,27.6346,-97.2370,0.0,3.2,168.0,4.5,'11111222,11111222,11111222' 
TCOON,ioos:station:TCOON:005:1,2013-08-01T08:36:00Z,27.6346,-97.2370,0.0,3.2,168.0,4.7,'11111222,11111222,11111222' 
TCOON,ioos:station:TCOON:005:1,2013-08-01T08:42:00Z,27.6346,-97.2370,0.0,2.9,164.0,4.4,'11111222,11111222,11111222' 
TCOON,ioos:station:TCOON:005:1,2013-08-01T08:48:00Z,27.6346,-97.2370,0.0,3.2,167.0,4.1,'11111222,11111222,11111222' 
TCOON,ioos:station:TCOON:005:1,2013-08-01T08:54:00Z,27.6346,-97.2370,0.0,2.9,166.0,4.5,'11111222,11111222,11111222' 
TCOON,ioos:station:TCOON:005:1,2013-08-01T09:00:00Z,27.6346,-97.2370,0.0,3.0,166.0,4.4,'11111222,11111222,11111222' 
TCOON,ioos:station:TCOON:005:1,2013-08-01T09:06:00Z,27.6346,-97.2370,0.0,3.3,170.0,4.1,'11111222,11111222,11111222' 
TCOON,ioos:station:TCOON:005:1,2013-08-01T09:12:00Z,27.6346,-97.2370,0.0,3.6,172.0,4.7,'11111222,11111222,11111222' 
TCOON,ioos:station:TCOON:005:1,2013-08-01T09:18:00Z,27.6346,-97.2370,0.0,3.6,173.0,4.5,'11111222,11111222,11111222' 
TCOON,ioos:station:TCOON:005:1,2013-08-01T09:24:00Z,27.6346,-97.2370,0.0,3.9,178.0,5.4,'11111222,11111222,11111222' 
TCOON,ioos:station:TCOON:005:1,2013-08-01T09:30:00Z,27.6346,-97.2370,0.0,3.7,175.0,4.7,'11111222,11111222,11111222' 
TCOON,ioos:station:TCOON:005:1,2013-08-01T09:36:00Z,27.6346,-97.2370,0.0,4.0,173.0,5.1,'11111222,11111222,11111222' 
TCOON,ioos:station:TCOON:005:1,2013-08-01T09:42:00Z,27.6346,-97.2370,0.0,3.5,170.0,4.9,'11111222,11111222,11111222' 
TCOON,ioos:station:TCOON:005:1,2013-08-01T09:48:00Z,27.6346,-97.2370,0.0,3.3,169.0,4.9,'11111222,11111222,11111222' 
TCOON,ioos:station:TCOON:005:1,2013-08-01T09:54:00Z,27.6346,-97.2370,0.0,3.2,175.0,4.5,'11111222,11111222,11111222' 
TCOON,ioos:station:TCOON:005:1,2013-08-01T10:00:00Z,27.6346,-97.2370,0.0,3.7,175.0,4.6,'11111222,11111222,11111222' 
TCOON,ioos:station:TCOON:005:1,2013-08-01T10:06:00Z,27.6346,-97.2370,0.0,3.4,179.0,4.6,'11111222,11111222,11111222' 
TCOON,ioos:station:TCOON:005:1,2013-08-01T10:12:00Z,27.6346,-97.2370,0.0,3.2,179.0,4.3,'11111222,11111222,11111222' 
TCOON,ioos:station:TCOON:005:1,2013-08-01T10:18:00Z,27.6346,-97.2370,0.0,3.2,172.0,4.6,'11111222,11111222,11111222' 
TCOON,ioos:station:TCOON:005:1,2013-08-01T10:24:00Z,27.6346,-97.2370,0.0,3.5,176.0,4.8,'11111222,11111222,11111222' 
TCOON,ioos:station:TCOON:005:1,2013-08-01T10:30:00Z,27.6346,-97.2370,0.0,4.2,175.0,4.9,'11111222,11111222,11111222' 
TCOON,ioos:station:TCOON:005:1,2013-08-01T10:36:00Z,27.6346,-97.2370,0.0,3.7,178.0,4.7,'11111222,11111222,11111222' 
TCOON,ioos:station:TCOON:005:1,2013-08-01T10:42:00Z,27.6346,-97.2370,0.0,3.6,181.0,4.6,'11111222,11111222,11111222' 
TCOON,ioos:station:TCOON:005:1,2013-08-01T10:48:00Z,27.6346,-97.2370,0.0,3.5,185.0,4.9,'11111222,11111222,11111222' 
TCOON,ioos:station:TCOON:005:1,2013-08-01T10:54:00Z,27.6346,-97.2370,0.0,3.2,184.0,4.5,'11111222,11111222,11111222' 
TCOON,ioos:station:TCOON:005:1,2013-08-01T11:00:00Z,27.6346,-97.2370,0.0,3.2,183.0,4.8,'11111222,11111222,11111222' 
TCOON,ioos:station:TCOON:005:1,2013-08-01T11:06:00Z,27.6346,-97.2370,0.0,2.8,182.0,3.8,'11111222,11111222,11111222' 
TCOON,ioos:station:TCOON:005:1,2013-08-01T11:12:00Z,27.6346,-97.2370,0.0,2.7,176.0,3.4,'11111222,11111222,11111222' 
TCOON,ioos:station:TCOON:005:1,2013-08-01T11:18:00Z,27.6346,-97.2370,0.0,2.2,175.0,3.0,'11111222,11111222,11111222' 
TCOON,ioos:station:TCOON:005:1,2013-08-01T11:24:00Z,27.6346,-97.2370,0.0,2.0,177.0,3.3,'11111222,11111222,11111222' 
TCOON,ioos:station:TCOON:005:1,2013-08-01T11:30:00Z,27.6346,-97.2370,0.0,2.2,178.0,3.0,'11111222,11111222,11111222' 
TCOON,ioos:station:TCOON:005:1,2013-08-01T11:36:00Z,27.6346,-97.2370,0.0,2.2,180.0,3.0,'11111222,11111222,11111222' 
TCOON,ioos:station:TCOON:005:1,2013-08-01T11:42:00Z,27.6346,-97.2370,0.0,2.0,177.0,2.7,'11111222,11111222,11111222' 
TCOON,ioos:station:TCOON:005:1,2013-08-01T11:48:00Z,27.6346,-97.2370,0.0,1.8,171.0,2.5,'11111222,11111222,11111222' 
TCOON,ioos:station:TCOON:005:1,2013-08-01T11:54:00Z,27.6346,-97.2370,0.0,1.8,173.0,2.4,'11111222,11111222,11111222' 
TCOON,ioos:station:TCOON:005:1,2013-08-01T12:00:00Z,27.6346,-97.2370,0.0,1.7,172.0,2.4,'11111222,11111222,11111222' 
TCOON,ioos:station:TCOON:005:1,2013-08-01T12:06:00Z,27.6346,-97.2370,0.0,1.5,167.0,1.9,'11111222,11111222,11111222' 
TCOON,ioos:station:TCOON:005:1,2013-08-01T12:12:00Z,27.6346,-97.2370,0.0,1.4,167.0,2.2,'11111222,11111222,11111222' 
TCOON,ioos:station:TCOON:005:1,2013-08-01T12:18:00Z,27.6346,-97.2370,0.0,1.4,170.0,2.0,'11111222,11111222,11111222' 
TCOON,ioos:station:TCOON:005:1,2013-08-01T12:24:00Z,27.6346,-97.2370,0.0,1.2,171.0,2.2,'11111222,11111222,11111222' 
TCOON,ioos:station:TCOON:005:1,2013-08-01T12:30:00Z,27.6346,-97.2370,0.0,1.5,175.0,1.8,'11111222,11111222,11111222' 
TCOON,ioos:station:TCOON:005:1,2013-08-01T12:36:00Z,27.6346,-97.2370,0.0,1.5,178.0,2.1,'11111222,11111222,11111222' 
TCOON,ioos:station:TCOON:005:1,2013-08-01T12:42:00Z,27.6346,-97.2370,0.0,1.7,192.0,2.3,'11111222,11111222,11111222' 
TCOON,ioos:station:TCOON:005:1,2013-08-01T12:48:00Z,27.6346,-97.2370,0.0,1.6,186.0,2.0,'11111222,11111222,11111222' 
TCOON,ioos:station:TCOON:005:1,2013-08-01T12:54:00Z,27.6346,-97.2370,0.0,1.7,194.0,2.2,'11111222,11111222,11111222' 
TCOON,ioos:station:TCOON:005:1,2013-08-01T13:00:00Z,27.6346,-97.2370,0.0,1.8,192.0,2.4,'11111222,11111222,11111222' 
TCOON,ioos:station:TCOON:005:1,2013-08-01T13:06:00Z,27.6346,-97.2370,0.0,1.9,182.0,2.3,'11111222,11111222,11111222' 
TCOON,ioos:station:TCOON:005:1,2013-08-01T13:12:00Z,27.6346,-97.2370,0.0,1.7,182.0,2.2,'11111222,11111222,11111222' 
TCOON,ioos:station:TCOON:005:1,2013-08-01T13:18:00Z,27.6346,-97.2370,0.0,1.9,183.0,2.2,'11111222,11111222,11111222' 
TCOON,ioos:station:TCOON:005:1,2013-08-01T13:24:00Z,27.6346,-97.2370,0.0,1.8,183.0,2.4,'11111222,11111222,11111222' 
TCOON,ioos:station:TCOON:005:1,2013-08-01T13:30:00Z,27.6346,-97.2370,0.0,2.4,185.0,2.8,'11111222,11111222,11111222' 
TCOON,ioos:station:TCOON:005:1,2013-08-01T13:36:00Z,27.6346,-97.2370,0.0,2.3,213.0,2.9,'11111222,11111222,11111222' 
TCOON,ioos:station:TCOON:005:1,2013-08-01T13:42:00Z,27.6346,-97.2370,0.0,2.2,200.0,3.1,'11111222,11111222,11111222' 
TCOON,ioos:station:TCOON:005:1,2013-08-01T13:48:00Z,27.6346,-97.2370,0.0,2.8,203.0,3.8,'11111222,11111222,11111222' 
TCOON,ioos:station:TCOON:005:1,2013-08-01T13:54:00Z,27.6346,-97.2370,0.0,3.0,207.0,3.7,'11111222,11111222,11111222' 
TCOON,ioos:station:TCOON:005:1,2013-08-01T14:00:00Z,27.6346,-97.2370,0.0,2.9,205.0,4.1,'11111222,11111222,11111222' 
TCOON,ioos:station:TCOON:005:1,2013-08-01T14:06:00Z,27.6346,-97.2370,0.0,3.1,200.0,3.8,'11111222,11111222,11111222' 
TCOON,ioos:station:TCOON:005:1,2013-08-01T14:12:00Z,27.6346,-97.2370,0.0,4.1,212.0,4.8,'11111222,11111222,11111222' 
TCOON,ioos:station:TCOON:005:1,2013-08-01T14:18:00Z,27.6346,-97.2370,0.0,4.1,213.0,5.3,'11111222,11111222,11111222' 
TCOON,ioos:station:TCOON:005:1,2013-08-01T14:24:00Z,27.6346,-97.2370,0.0,3.9,214.0,5.0,'11111222,11111222,11111222' 
TCOON,ioos:station:TCOON:005:1,2013-08-01T14:30:00Z,27.6346,-97.2370,0.0,3.5,200.0,4.9,'11111222,11111222,11111222' 
TCOON,ioos:station:TCOON:005:1,2013-08-01T14:36:00Z,27.6346,-97.2370,0.0,3.2,215.0,4.5,'11111222,11111222,11111222' 
TCOON,ioos:station:TCOON:005:1,2013-08-01T14:42:00Z,27.6346,-97.2370,0.0,3.5,214.0,4.1,'11111222,11111222,11111222' 
TCOON,ioos:station:TCOON:005:1,2013-08-01T14:48:00Z,27.6346,-97.2370,0.0,3.3,218.0,4.3,'11111222,11111222,11111222' 
TCOON,ioos:station:TCOON:005:1,2013-08-01T14:54:00Z,27.6346,-97.2370,0.0,3.3,212.0,4.1,'11111222,11111222,11111222' 
TCOON,ioos:station:TCOON:005:1,2013-08-01T15:00:00Z,27.6346,-97.2370,0.0,3.6,214.0,4.4,'11111222,11111222,11111222' 
TCOON,ioos:station:TCOON:005:1,2013-08-01T15:06:00Z,27.6346,-97.2370,0.0,3.6,214.0,4.3,'11111222,11111222,11111222' 
TCOON,ioos:station:TCOON:005:1,2013-08-01T15:12:00Z,27.6346,-97.2370,0.0,3.8,216.0,4.6,'11111222,11111222,11111222' 
TCOON,ioos:station:TCOON:005:1,2013-08-01T15:18:00Z,27.6346,-97.2370,0.0,3.5,219.0,4.2,'11111222,11111222,11111222' 
TCOON,ioos:station:TCOON:005:1,2013-08-01T15:24:00Z,27.6346,-97.2370,0.0,3.1,220.0,3.8,'11111222,11111222,11111222' 
TCOON,ioos:station:TCOON:005:1,2013-08-01T15:30:00Z,27.6346,-97.2370,0.0,2.4,214.0,3.6,'11111222,11111222,11111222' 
TCOON,ioos:station:TCOON:005:1,2013-08-01T15:36:00Z,27.6346,-97.2370,0.0,2.4,179.0,4.8,'11111222,11111222,11111222' 
TCOON,ioos:station:TCOON:005:1,2013-08-01T15:42:00Z,27.6346,-97.2370,0.0,3.1,152.0,4.2,'11111222,11111222,11111222' 
TCOON,ioos:station:TCOON:005:1,2013-08-01T15:48:00Z,27.6346,-97.2370,0.0,3.4,156.0,4.2,'11111222,11111222,11111222' 
TCOON,ioos:station:TCOON:005:1,2013-08-01T15:54:00Z,27.6346,-97.2370,0.0,3.1,142.0,4.0,'11111222,11111222,11111222' 
TCOON,ioos:station:TCOON:005:1,2013-08-01T16:00:00Z,27.6346,-97.2370,0.0,2.3,157.0,3.8,'11111222,11111222,11111222' 
TCOON,ioos:station:TCOON:005:1,2013-08-01T16:06:00Z,27.6346,-97.2370,0.0,2.5,152.0,4.4,'11111222,11111222,11111222' 
TCOON,ioos:station:TCOON:005:1,2013-08-01T16:12:00Z,27.6346,-97.2370,0.0,0.8,170.0,3.9,'11111222,11111222,11111222' 
TCOON,ioos:station:TCOON:005:1,2013-08-01T16:18:00Z,27.6346,-97.2370,0.0,2.8,168.0,4.6,'11111222,11111222,11111222' 
TCOON,ioos:station:TCOON:005:1,2013-08-01T16:24:00Z,27.6346,-97.2370,0.0,2.8,157.0,5.9,'11111222,11111222,11111222' 
TCOON,ioos:station:TCOON:005:1,2013-08-01T16:30:00Z,27.6346,-97.2370,0.0,3.2,128.0,4.7,'11111222,11111222,11111222' 
TCOON,ioos:station:TCOON:005:1,2013-08-01T16:36:00Z,27.6346,-97.2370,0.0,3.8,147.0,5.3,'11111222,11111222,11111222' 
TCOON,ioos:station:TCOON:005:1,2013-08-01T16:42:00Z,27.6346,-97.2370,0.0,2.6,132.0,4.4,'11111222,11111222,11111222' 
TCOON,ioos:station:TCOON:005:1,2013-08-01T16:48:00Z,27.6346,-97.2370,0.0,3.9,129.0,5.0,'11111222,11111222,11111222' 
TCOON,ioos:station:TCOON:005:1,2013-08-01T16:54:00Z,27.6346,-97.2370,0.0,2.8,128.0,4.8,'11111222,11111222,11111222' 
TCOON,ioos:station:TCOON:005:1,2013-08-01T17:00:00Z,27.6346,-97.2370,0.0,4.1,107.0,6.2,'11111222,11111222,11111222' 
TCOON,ioos:station:TCOON:005:1,2013-08-01T17:06:00Z,27.6346,-97.2370,0.0,4.3,117.0,5.5,'11111222,11111222,11111222' 
TCOON,ioos:station:TCOON:005:1,2013-08-01T17:12:00Z,27.6346,-97.2370,0.0,4.3,127.0,5.3,'11111222,11111222,11111222' 
TCOON,ioos:station:TCOON:005:1,2013-08-01T17:18:00Z,27.6346,-97.2370,0.0,3.8,119.0,5.1,'11111222,11111222,11111222' 
TCOON,ioos:station:TCOON:005:1,2013-08-01T17:24:00Z,27.6346,-97.2370,0.0,3.8,114.0,5.4,'11111222,11111222,11111222' 
TCOON,ioos:station:TCOON:005:1,2013-08-01T17:30:00Z,27.6346,-97.2370,0.0,4.5,116.0,5.2,'11111222,11111222,11111222' 
TCOON,ioos:station:TCOON:005:1,2013-08-01T17:36:00Z,27.6346,-97.2370,0.0,4.3,120.0,5.9,'11111222,11111222,11111222' 
TCOON,ioos:station:TCOON:005:1,2013-08-01T17:42:00Z,27.6346,-97.2370,0.0,4.2,122.0,5.8,'11111222,11111222,11111222' 
TCOON,ioos:station:TCOON:005:1,2013-08-01T17:48:00Z,27.6346,-97.2370,0.0,5.0,121.0,6.4,'11111222,11111222,11111222' 
TCOON,ioos:station:TCOON:005:1,2013-08-01T17:54:00Z,27.6346,-97.2370,0.0,4.6,124.0,6.4,'11111222,11111222,11111222' 
TCOON,ioos:station:TCOON:005:1,2013-08-01T18:00:00Z,27.6346,-97.2370,0.0,4.1,148.0,6.3,'11111222,11111222,11111222' 
TCOON,ioos:station:TCOON:005:1,2013-08-01T18:06:00Z,27.6346,-97.2370,0.0,4.3,140.0,5.4,'11111222,11111222,11111222' 
TCOON,ioos:station:TCOON:005:1,2013-08-01T18:12:00Z,27.6346,-97.2370,0.0,4.1,140.0,6.0,'11111222,11111222,11111222' 
TCOON,ioos:station:TCOON:005:1,2013-08-01T18:18:00Z,27.6346,-97.2370,0.0,4.1,127.0,6.9,'11111222,11111222,11111222' 
TCOON,ioos:station:TCOON:005:1,2013-08-01T18:24:00Z,27.6346,-97.2370,0.0,5.6,113.0,6.8,'11111222,11111222,11111222' 
TCOON,ioos:station:TCOON:005:1,2013-08-01T18:30:00Z,27.6346,-97.2370,0.0,5.0,124.0,6.3,'11111222,11111222,11111222' 
TCOON,ioos:station:TCOON:005:1,2013-08-01T18:36:00Z,27.6346,-97.2370,0.0,5.7,114.0,7.4,'11111222,11111222,11111222' 
TCOON,ioos:station:TCOON:005:1,2013-08-01T18:42:00Z,27.6346,-97.2370,0.0,5.4,110.0,7.3,'11111222,11111222,11111222' 
TCOON,ioos:station:TCOON:005:1,2013-08-01T18:48:00Z,27.6346,-97.2370,0.0,5.5,113.0,6.7,'11111222,11111222,11111222' 
TCOON,ioos:station:TCOON:005:1,2013-08-01T18:54:00Z,27.6346,-97.2370,0.0,5.5,108.0,7.1,'11111222,11111222,11111222' 
TCOON,ioos:station:TCOON:005:1,2013-08-01T19:00:00Z,27.6346,-97.2370,0.0,5.0,109.0,6.5,'11111222,11111222,11111222' 
TCOON,ioos:station:TCOON:005:1,2013-08-01T19:06:00Z,27.6346,-97.2370,0.0,5.4,108.0,7.3,'11111222,11111222,11111222' 
TCOON,ioos:station:TCOON:005:1,2013-08-01T19:12:00Z,27.6346,-97.2370,0.0,6.1,104.0,7.2,'11111222,11111222,11111222' 
TCOON,ioos:station:TCOON:005:1,2013-08-01T19:18:00Z,27.6346,-97.2370,0.0,5.4,114.0,7.2,'11111222,11111222,11111222' 
TCOON,ioos:station:TCOON:005:1,2013-08-01T19:24:00Z,27.6346,-97.2370,0.0,6.2,107.0,7.6,'11111222,11111222,11111222' 
TCOON,ioos:station:TCOON:005:1,2013-08-01T19:30:00Z,27.6346,-97.2370,0.0,6.1,107.0,7.4,'11111222,11111222,11111222' 
TCOON,ioos:station:TCOON:005:1,2013-08-01T19:36:00Z,27.6346,-97.2370,0.0,5.9,111.0,6.8,'11111222,11111222,11111222' 
TCOON,ioos:station:TCOON:005:1,2013-08-01T19:42:00Z,27.6346,-97.2370,0.0,5.7,111.0,7.1,'11111222,11111222,11111222' 
TCOON,ioos:station:TCOON:005:1,2013-08-01T19:48:00Z,27.6346,-97.2370,0.0,4.5,132.0,7.2,'11111222,11111222,11111222' 
TCOON,ioos:station:TCOON:005:1,2013-08-01T19:54:00Z,27.6346,-97.2370,0.0,5.8,114.0,7.3,'11111222,11111222,11111222' 
TCOON,ioos:station:TCOON:005:1,2013-08-01T20:00:00Z,27.6346,-97.2370,0.0,6.1,119.0,7.9,'11111222,11111222,11111222' 
TCOON,ioos:station:TCOON:005:1,2013-08-01T20:06:00Z,27.6346,-97.2370,0.0,5.4,123.0,7.4,'11111222,11111222,11111222' 
TCOON,ioos:station:TCOON:005:1,2013-08-01T20:12:00Z,27.6346,-97.2370,0.0,5.8,118.0,7.2,'11111222,11111222,11111222' 
TCOON,ioos:station:TCOON:005:1,2013-08-01T20:18:00Z,27.6346,-97.2370,0.0,6.3,112.0,7.5,'11111222,11111222,11111222' 